Regional Weather Roundup
Issued by NWS Grand Forks, ND

Home | Current Version | Previous Version | Text Only | Print | Product List | Glossary Off
Versions: 1 2 3 4 5 6 7 8 9 10 11 12 13 14 15 16 17 18 19 20 21 22 23 24 25 26 27 28 29 30 31 32 33 34 35 36 37 38 39 40 41 42 43 44 45 46 47 48 49 50

000
ASUS43 KFGF 152331
RWRFGF
PRAIRIE TO PINES  WEATHER ROUNDUP
NATIONAL WEATHER SERVICE EASTERN NORTH DAKOTA/GRAND FORKS ND
600 PM CDT MON SEP 15 2014

 **SATELLITE DATA USED TO AUGMENT SKY COVER AT AUTOMATED STATIONS**
 *****  WEATHER ACROSS EASTERN NORTH DAKOTA  *****

CITY           SKY/WX    TMP DP  RH WIND       PRES   REMARKS
GRAND FORKS    MOSUNNY   67  38  34 W10       30.10F
GRAND FRKS AFB SUNNY     66  39  37 W9        30.10F
GRAND FRKS NWS   N/A     63 N/A N/A W7          N/A
DEVILS LAKE    SUNNY     66  37  34 W10       30.09S
FARGO          SUNNY     64  36  35 SW9       30.16F
WAHPETON ARPT  CLEAR     61  32  33 W7        30.19S
$$

 ***** WEATHER ACROSS CENTRAL AND WESTERN NORTH DAKOTA  *****

CITY           SKY/WX    TMP DP  RH WIND       PRES   REMARKS
BISMARCK       SUNNY     68  35  29 SW10      30.15F
MINOT          SUNNY     67  34  29 SW9       30.09F
JAMESTOWN      SUNNY     63  37  38 W12       30.15F
MINOT AFB      SUNNY     67  34  29 W7        30.08F
GARRISON         N/A     67  37  33 W8        30.11F
WILLISTON      SUNNY     68  32  26 S9        30.08F
DICKINSON      SUNNY     65  37  35 S9        30.11S
HETTINGER      SUNNY     65  36  34 SW8       30.15F
$$

 *****  OTHER AIRPORT OBSERVATIONS IN OUR AREA  *****

CITY           SKY/WX    TMP DP  RH WIND       PRES   REMARKS
WALHALLA         N/A     64  32  29 NW8       30.07S
GRAFTON AIRPOR FAIR      64  37  36 W16       30.07F
VALLEY CITY AR FAIR      63  37  39 W12       30.16S
CANDO          FAIR      64  34  32 W9        30.10S
CAVALIER APRT  FAIR      66  39  37 W10       30.06S
GWINNER        CLEAR     63  37  39 SW8       30.19F
SHEYENNE NWR     N/A     65  37  35 W6        29.95S
ROLLA          FAIR      63  36  36 W6        30.10S
 ***** THE ABOVE OBSERVATIONS ARE NON NWS ARE NOT QUALITY
       CONTROLLED AND MAY MIS-REPORT RAIN FOR SNOW...
$$

  *****  WEATHER ACROSS NORTHERN MINNESOTA  *****

CITY           SKY/WX    TMP DP  RH WIND       PRES   REMARKS
FLAG ISLAND    SUNNY     61  36  39 W8        30.06S
WARROAD        SUNNY     61  37  41 W6        30.09F
ROSEAU         SUNNY     63  36  36 CALM      30.08F
HALLOCK        MOSUNNY   66  36  32 W12       30.05F
THF RVR FALLS  MOSUNNY   63  37  39 SW7       30.10F
BAUDETTE       SUNNY     59  35  40 VRB6      30.10S
WASKISH        MOSUNNY   57  45  62 CALM      30.12F
CROOKSTON      MOSUNNY   64  37  36 W12G18    30.11F
STEPHEN NDAWN    N/A     64  39  39 W10         N/A
GREENBUSH NDAW   N/A     64  37  36 SW8         N/A
$$
  *****  WEATHER ACROSS CENTRAL AND WEST MINNESOTA  *****

CITY           SKY/WX    TMP DP  RH WIND       PRES   REMARKS
FOSSTON        MOSUNNY   61  39  44 W3        30.14F
BEMIDJI        MOSUNNY   58  37  46 SW6       30.14F
PARK RAPIDS    MOSUNNY   59  33  37 W10       30.17S
ELBOW LAKE     FAIR      59  36  41 NW5       30.20S
WADENA         SUNNY     57  36  44 W5        30.19S
DETROIT LAKES  SUNNY     59  36  41 W6        30.18F
MOORHEAD       MOSUNNY   64  30  27 W8        30.17S
FERGUS FALLS   SUNNY     61  30  31 NW6G16    30.19F
MORRIS MN      SUNNY     63  32  31 NW3       30.20S
STAPLES        SUNNY     57  32  38 NW8       30.19S
$$
  *****  WEATHER ELSEWHERE ACROSS MINNESOTA  *****

CITY           SKY/WX    TMP DP  RH WIND       PRES   REMARKS
DULUTH         MOSUNNY   55  34  45 W7        30.15R
INTRNTL FALLS  SUNNY     55  37  50 W6        30.10S
ELY            SUNNY     54  37  54 W5        30.12S
CLOQUET        MOSUNNY   55  32  41 W9        30.16S
WHEATON        SUNNY     61  34  36 SW5       30.22S
BRAINERD       SUNNY     58  34  40 NE3       30.18F
HIBBING        PTSUNNY   56  35  45 W3        30.15S
ALEXANDRIA     SUNNY     59  34  39 NW7       30.21F
SAINT CLOUD    MOSUNNY   62  36  37 N9        30.19S
MINNEAPOLIS    MOSUNNY   60  37  42 W10       30.19S
$$

  *****  WEATHER ACROSS SOUTH DAKOTA  *****

CITY           SKY/WX    TMP DP  RH WIND       PRES   REMARKS
SIOUX FALLS    MOSUNNY   62  40  44 W3        30.23S
BROOKINGS      NOT AVBL
WATERTOWN      SUNNY     59  33  37 W6        30.22S
HURON          SUNNY     63  31  30 CALM      30.22F
SISSETON         N/A     64  35  34 NW9       30.20S
ABERDEEN       SUNNY     63  35  35 W5        30.20F
MITCHELL       SUNNY     64  37  36 CALM      30.24S
PIERRE         SUNNY     65  35  33 SE5       30.19F
MOBRIDGE       SUNNY     64  38  38 SE10      30.16F
RAPID CITY     SUNNY     68  43  40 S20       30.15F
$$

  *****  SOME WEATHER IN NEARBY STATES *****

CITY           SKY/WX    TMP DP  RH WIND       PRES   REMARKS
GLASGOW MT     SUNNY     68  36  30 VRB5      30.05F
GREAT FALLS MT SUNNY     77  36  22 NE6       30.03S
CHEYENNE WY    SUNNY     67  39  35 S17       30.27F
SCOTTSBLUFF NE SUNNY     72  45  37 SE17      30.19F
OMAHA NE       PTSUNNY   62  45  53 N6        30.24S
DES MOINES IA  PTSUNNY   61  46  57 N10       30.20R
DAVENPORT IA   CLOUDY    57  49  74 N12       30.16R
CHICAGO IL     LGT RAIN  59  53  80 N13       30.11R
EAU CLAIRE WI  MOSUNNY   59  37  44 NW10      30.17R
LA CROSSE WI   SUNNY     62  47  57 NW10      30.16S
$$

  *****  SOME NATIONAL WEATHER *****

CITY           SKY/WX    TMP DP  RH WIND       PRES   REMARKS
LA GUARDIA NY  MOCLDY    69  44  40 S10       30.10S
RALEIGH NC     CLOUDY    71  64  78 S5        30.15R
ATLANTA GA     CLOUDY    77  70  79 E5        30.14R
NEW ORLEANS LA CLOUDY    79  75  87 SE6       30.05S
OKLAHOMA CITY  PTSUNNY   84  66  54 S7        30.10F
ALBUQUERQUE NM MOSUNNY   85  52  32 S7G18     30.14F
SALT LAKE CITY MOSUNNY   88  36  15 N7        30.06F
LOS ANGELES CA MOSUNNY   82  59  45 W15       29.74F
BOISE ID       MOSUNNY   90  33  13 N7        29.95F
SEATTLE WA     MOSUNNY   86  41  20 W7        29.82F
$$

*** WEATHER ACROSS MANITOBA...SASKATCHEWAN AND ONTARIO ***
                ***ONTARIO***

CITY           SKY/WX    TMP DP  RH WIND       PRES   REMARKS
GERALDTON      PTCLDY    52  39  62 W9        29.99S
THUNDER BAY    MOSUNNY   57  39  51 W7        30.06S
SIOUX LOOKOUT  PTSUNNY   57  39  51 W9        29.99F
TORONTO        LGT RAIN  57  54  88 S6        30.07F
BIG TROUT LK   CLOUDY    55  39  54 NW12G18   29.75F
PICKLE LAKE    MOSUNNY   57  36  44 W14G21    29.90F
DRYDEN         MOSUNNY   59  36  41 W16G22    30.02S
KENORA         PTSUNNY   57  34  41 W15G21    30.06S
$$
                *** MANITOBA***

CITY           SKY/WX    TMP DP  RH WIND       PRES   REMARKS
BRANDON        MOSUNNY   64  45  48 SW13      30.03F
DAUPHIN        PTSUNNY   66  45  45 W9        29.96S
ISLAND LAKE    PTSUNNY   61  37  41 W9        29.80F
PILOT MOUND      N/A     63  36  36 W8          N/A
THE PAS        PTSUNNY   63  43  48 W7        29.86F
THOMPSON       LGT RAIN  37  37 100 N10       29.96R
WINNIPEG       MOSUNNY   63  36  36 W8        30.04F
LYNN LAKE      CLOUDY    39  28  65 MISG      30.02R
CHURCHILL      HAIL      36  28  75 N13       30.00
GILLAM         CLOUDY   N/A N/A N/A NE12G18     N/A
$$
                ***SASKATCHEWAN***

CITY           SKY/WX    TMP DP  RH WIND       PRES   REMARKS
ESTEVAN        MOSUNNY   66  37  34 SW10      30.07F
KINDERSLEY     SUNNY     72  39  30 W8        29.98F
LLOYDMINSTER   MOSUNNY   72  39  30 W13G20    29.93F
PRINCE ALBERT  PTSUNNY   66  46  48 N8        29.93S
REGINA         MOSUNNY   68  39  34 NW12G18   30.01F
YORKTON        SUNNY     68  41  37 W14G20    29.98S
N. BATTLEFORD  SUNNY     72  39  30 W15       29.96F
LA RONGE       PTSUNNY   64  39  39 NW9G17    29.91R
SASKATOON      MOSUNNY   72  41  33 W8        29.97F
SWIFT CURRENT  NOT AVBL
$$
NOTE: THESE ARE AUTOMATED STATIONS WITH LIMITED QUALITY CONTROL
      "FAIR" INDICATES FEW OR NO CLOUDS BELOW 12,000 FEET WITH NO
      SIGNIFICANT WEATHER AND/OR OBSTRUCTIONS TO VISIBILITY.
      SKY/WX - SKY CONDITION AND SIGNIFICANT WEATHER.
      TMP - AIR TEMPERATURE.    DP   - DEWPOINT TEMPERATURE.
      RH  - RELATIVE HUMIDITY.  PRES - PRESSURE.
      HX  - HEAT INDEX.         WCI  - WIND CHILL INDEX.
$


USA.gov is the U.S. government's official web portal to all federal, state and local government web resources and services.